User: anonymous
Location: Brno
(49.2000°N, 16.6330°E)
Time: 18:25:37
(UTC+02:00)
Language:

CARTOSAT-1 - Orbit

View from above orbital plane
View from above orbital plane
View from above satellite
View from above satellite

Ground track
Ground track

The orbit data is extracted from the following two-line orbital elements,

1 28649U 05017A   14209.14085100  .00000251  00000-0  36839-4 0  4454
2 28649 097.8320 282.3354 0001580 131.3664 228.7692 14.83473623499565
Epoch (UTC): 28 July 2014 03:22:49
Eccentricity: 0.0001580
inclination: 97.8320°
perigee height: 617 km
apogee height: 619 km
right ascension of ascending node: 282.3354°
argument of perigee: 131.3664°
revolutions per day: 14.83473623
mean anomaly at epoch: 228.7692°
orbit number at epoch: 49956

The dashed part of the orbit path shows where the satellite is in the earth's shadow,  

DLR